Chattahoochee River Whitewater Weather Center

Moon Phase Calendar



Online Cameras

 


      

Current Conditions in Phenix City
4/25/2024 2:38:43 AM

61°F
Feels Like 61
Clear
Humidity
94%
Pressure
30.09"
Wind
0
Dew Point
60°F
UV Index
0/10 (Low)
Visibility
6 mi

Hourly Forecast

Date & Time Thu, Apr 25
2:00 AM
Thu, Apr 25
3:00 AM
Thu, Apr 25
4:00 AM
Thu, Apr 25
5:00 AM
Thu, Apr 25
6:00 AM
Thu, Apr 25
7:00 AM
Thu, Apr 25
8:00 AM
Thu, Apr 25
9:00 AM
Thu, Apr 25
10:00 AM
Thu, Apr 25
11:00 AM
Thu, Apr 25
12:00 PM
Thu, Apr 25
1:00 PM
Thu, Apr 25
2:00 PM
Thu, Apr 25
3:00 PM
Thu, Apr 25
4:00 PM
Thu, Apr 25
5:00 PM
Thu, Apr 25
6:00 PM
Thu, Apr 25
7:00 PM
Thu, Apr 25
8:00 PM
Thu, Apr 25
9:00 PM
Thu, Apr 25
10:00 PM
Thu, Apr 25
11:00 PM
Fri, Apr 26
12:00 AM
Fri, Apr 26
1:00 AM
Fri, Apr 26
2:00 AM
Fri, Apr 26
3:00 AM
Fri, Apr 26
4:00 AM
Fri, Apr 26
5:00 AM
Fri, Apr 26
6:00 AM
Fri, Apr 26
7:00 AM
Fri, Apr 26
8:00 AM
Fri, Apr 26
9:00 AM
Fri, Apr 26
10:00 AM
Fri, Apr 26
11:00 AM
Fri, Apr 26
12:00 PM
Fri, Apr 26
1:00 PM
Fri, Apr 26
2:00 PM
Fri, Apr 26
3:00 PM
Fri, Apr 26
4:00 PM
Fri, Apr 26
5:00 PM
Fri, Apr 26
6:00 PM
Fri, Apr 26
7:00 PM
Fri, Apr 26
8:00 PM
Fri, Apr 26
9:00 PM
Fri, Apr 26
10:00 PM
Fri, Apr 26
11:00 PM
Sat, Apr 27
12:00 AM
Sat, Apr 27
1:00 AM
Condition
Clear

Clear

Clear

Clear

Clear

Clear

Clear

Clear

Clear

Clear

Clear

Clear

Clear

Clouds

Clouds

Clouds

Clouds

Clouds

Clouds

Clouds

Clouds

Clouds

Clouds

Clouds

Clouds

Clouds

Clouds

Clouds

Clouds

Clouds

Clouds

Clouds

Clouds

Clouds

Clouds

Clouds

Clouds

Clouds

Clouds

Clouds

Clouds

Clouds

Clouds

Clouds

Clouds

Clouds

Clouds

Clouds
Temperature 61°F61°F61°F60°F60°F59°F61°F66°F71°F75°F78°F81°F82°F82°F82°F82°F79°F75°F74°F73°F72°F70°F70°F69°F66°F65°F64°F64°F63°F63°F65°F70°F74°F77°F80°F82°F84°F84°F84°F82°F80°F77°F75°F75°F74°F74°F73°F72°F
Feels Like 61°F61°F61°F61°F60°F59°F60°F65°F70°F74°F78°F81°F82°F81°F81°F81°F78°F74°F74°F73°F72°F69°F70°F69°F66°F65°F64°F64°F63°F63°F65°F69°F73°F77°F80°F82°F83°F83°F83°F82°F81°F77°F75°F75°F74°F74°F73°F72°F
Cloudiness 5%0%1%2%4%5%5%0%0%0%0%1%2%87%44%47%59%67%72%96%98%93%95%96%88%98%99%75%61%52%56%45%33%30%29%44%41%42%71%80%85%88%90%100%100%100%100%100%
Visibility 6 mi6 mi6 mi6 mi6 mi6 mi6 mi6 mi6 mi6 mi6 mi6 mi6 mi6 mi6 mi6 mi6 mi6 mi6 mi6 mi6 mi6 mi6 mi6 mi6 mi6 mi6 mi6 mi6 mi6 mi6 mi6 mi6 mi6 mi6 mi6 mi6 mi6 mi6 mi6 mi6 mi6 mi6 mi6 mi6 mi6 mi6 mi6 mi
Precipitation 0%0%0%0%0%0%0%0%0%0%0%0%0%0%0%0%0%0%0%0%0%0%0%0%0%0%0%0%0%0%0%0%0%0%0%0%0%0%0%0%0%0%0%0%0%0%0%0%
Humidity 93%94%93%93%92%91%83%66%54%46%42%39%37%36%36%38%48%55%55%54%57%63%62%64%72%76%80%83%85%85%77%63%54%48%43%41%40%40%40%44%51%59%60%60%60%57%55%57%
Dew Point 59°F60°F59°F58°F57°F56°F55°F54°F53°F53°F53°F54°F54°F53°F53°F53°F57°F57°F56°F55°F56°F56°F56°F56°F56°F57°F58°F58°F58°F58°F58°F56°F56°F56°F56°F56°F56°F57°F57°F58°F61°F61°F60°F60°F60°F58°F56°F56°F
Pressure 30.09"30.09"30.09"30.09"30.12"30.15"30.15"30.15"30.15"30.15"30.15"30.12"30.12"30.09"30.06"30.06"30.06"30.06"30.06"30.09"30.09"30.12"30.09"30.09"30.06"30.06"30.09"30.09"30.09"30.09"30.12"30.15"30.15"30.15"30.15"30.15"30.12"30.09"30.09"30.09"30.09"30.09"30.12"30.12"30.12"30.15"30.15"30.18"
Wind Speed 3.6 mph3.4 mph4.2 mph4 mph3.4 mph3 mph2.4 mph2.1 mph2.5 mph2.6 mph2.5 mph1.7 mph2 mph2.8 mph3.8 mph4.3 mph5.4 mph3.1 mph0.2 mph0.9 mph2.3 mph0.5 mph3.3 mph2.4 mph2.2 mph1.3 mph1.8 mph2.4 mph2.8 mph4 mph3.4 mph4.3 mph6 mph7.2 mph7.9 mph8.6 mph9.6 mph10.1 mph9.8 mph8.4 mph6.3 mph4.9 mph4.7 mph5.3 mph6.8 mph11.5 mph11.1 mph9.7 mph
Wind
Direction
318°
NW
324°
NW
348°
NNW
352°
N
347°
NNW
348°
NNW

N
16°
NNE
48°
NE
76°
ENE
97°
E
141°
SE
203°
SSW
209°
SSW
192°
SSW
205°
SSW
218°
SW
201°
SSW
169°
S
81°
E
190°
S
231°
SW
93°
E
125°
SE
202°
SSW
176°
S
134°
SE
122°
ESE
115°
ESE
122°
ESE
115°
ESE
132°
SE
140°
SE
133°
SE
143°
SE
146°
SE
157°
SSE
161°
SSE
165°
SSE
158°
SSE
146°
SE
138°
SE
123°
ESE
101°
E
104°
ESE
117°
ESE
132°
SE
132°
SE

Daily Forecast

Date High Low Precip. Humidity
Today
Apr 25

Clear
82 °F
59 °F
0%
39%
Friday
Apr 26

Clouds
84 °F
63 °F
0%
41%
Saturday
Apr 27

Clouds
81 °F
66 °F
0%
45%
Sunday
Apr 28

Clear
82 °F
62 °F
0%
39%
Monday
Apr 29

Clear
83 °F
63 °F
0%
39%
Tuesday
Apr 30

Clouds
84 °F
64 °F
0%
43%
Wednesday
May 1

Clouds
89 °F
67 °F
0%
33%
Thursday
May 2

Clouds
91 °F
67 °F
0%
31%
Friday
May 3

Rain
76 °F
66 °F
20%
72%
Saturday
May 4

Clouds
83 °F
61 °F
0%
40%
Sunday
May 5

Clouds
85 °F
60 °F
0%
33%
Monday
May 6

Rain
84 °F
65 °F
100%
66%
Tuesday
May 7

Clear
91 °F
66 °F
0%
42%
Wednesday
May 8

Clouds
94 °F
69 °F
0%
41%
Thursday
May 9

Clouds
95 °F
71 °F
0%
37%
Friday
May 10

Clouds
91 °F
70 °F
0%
39%

Temperature 8-14 Day Outlook



Precipitation 8-14 Day Outlook






About Us
Contact Us
Site Map
Search Site
Advertise With Us
   
www.ChattahoocheeRiverWhitewater.com
THE CHATTAHOOCHEE RIVER WHITEWATER WEBSITE

Copyright 2024, Discover Rivers
Privacy    |    Legal